OPS 6392 (FLTSATCOM 2)

导读 | 星芒AI

OPS 6392(也称为 FLTSATCOM 2)是美国海军于1974年12月10日发射的一颗通信卫星,用于舰队卫星通信(FLTSATCOM)系统。该卫星运行在地球同步轨道,旨在为海军舰队提供安全、可靠的战术通信能力。FLTSATCOM 2 是该系列的第二颗卫星,搭载了 UHF 频段通信载荷,支持语音和数据传输。尽管其设计寿命有限,但该卫星在冷战期间对海军作战通信起到了关键作用。

基本信息
目录编号:
11353
目录名称:
OPS 6392 (FLTSATCOM 2)
国际标识:
1979-038A
轨道中心:
EARTH
卫星名称:
OPS 6392 (FLTSATCOM 2)
卫星全名:
--
卫星状态:
在轨 (已飞行16983 天)
发射日期:
1979-05-04 UTC
国别 :
美国 (US)
星等 :
--
轨道信息
数据来源 国际轨道数据 AOE轨道数据
星历时间 2025-10-31T21:19:00+0800
14小时前
查看轨道信息
2025-10-30T23:00:00+0800
1天前
查看轨道信息
半长轴 42656.734km 42656.618km
偏心率 0.0012751 0.0012672
轨道倾角 8.229° 8.231°
近地点辐角 72.211° 71.758°
升交点赤经 304.119° 304.125°
平近点角 296.990° 327.562°
近地点 36224.207km 36224.428km
远地点 36332.991km 36332.538km
周期 1461.306分钟 1461.300分钟
每日圈数 0.98542 0.985424
详细信息
使用方式:
暂无
2D轨道图
3D轨道图
轨道高度分析图
轨道倾角分析图
轨道综合分析图
查看轨道综合分析图